Location: Observatoire
(46.1952°N, 5.3391°E)
Time: 02:42:41
(UTC+01:00)

Altair - Pass Details

Date: 26 February 2026
Orbit: 1502 x 1682 km, 47.2° (Epoch: 13 March)

Event Time Altitude Azimuth Distance (km) Brightness Sun altitude
Rises 06:47:31 0° 280° (W) 4,643 - -7.0°
Exits shadow 06:49:45 - 280° (W) 3,915 8.9 -6.6°
Reaches altitude 10° 06:50:31 10° 280° (W) 3,671 8.8 -6.4°
Maximum altitude 06:59:48 89° 10° (N) 1,545 7.6 -4.9°
Drops below altitude 10° 07:09:25 10° 103° (ESE) 3,785 11.6 -3.2°
Sets 07:12:32 0° 104° (ESE) 4,793 13.3 -2.7°
